Location: Magnacavallo
(45.0000°N, 11.1667°E)
Time: 00:11:55
(UTC+00:00)

Daily predictions for brighter satellites

Satellite Brightness Start Highest point End
(mag) Time Altitude Azimuth Time Altitude Azimuth Time Altitude Azimuth
Okean 2 Rocket 3.8 00:01:01 10° NNW 00:04:32 42° WNW 00:04:32 42° WNW
Cosmos 2151 Rocket 4.0 00:02:07 10° NNW 00:06:04 55° WNW 00:06:04 55° WNW
Cosmos 1766 4.5 00:03:59 10° NNW 00:06:41 35° NW 00:06:41 35° NW
MOZ.5/SAFIR/RUBIN 5/SL-8 4.3 00:07:50 45° ESE 00:08:40 51° ENE 00:13:10 10° N
NOSS 2-1 (C) 4.4 00:08:47 10° NW 00:13:52 57° SW 00:14:13 56° SW
Helios 1A 3.0 00:16:33 75° N 00:16:33 75° N 00:20:23 10° NNW
USA 276 4.3 00:20:13 23° ENE 00:20:13 23° ENE 00:21:35 10° ENE
Cosmos 2227 Rocket 3.2 00:14:11 10° NNW 00:19:35 44° ENE 00:23:59 15° SE
Cosmos 2297 Rocket 2.7 00:16:47 10° NNW 00:22:24 58° ENE 00:25:29 26° SE
Meteor 1-21 4.2 00:25:19 56° S 00:26:36 82° E 00:32:26 10° NNE
Cosmos 1470 3.1 00:24:25 10° N 00:27:45 62° NNW 00:27:45 62° NNW
YAOGAN 11 4.3 00:28:55 59° WNW 00:28:55 59° WNW 00:32:46 10° NNW
Cosmos 2100 Rocket 4.1 00:25:01 10° N 00:31:20 73° E 00:33:57 38° SSE
Cosmos 1726 2.7 00:28:02 10° N 00:30:58 54° NNW 00:30:58 54° NNW
Cosmos 1674 4.2 00:31:30 28° E 00:31:45 28° E 00:35:05 10° NNE
Cosmos 1802 Rocket 4.4 00:27:06 10° N 00:33:09 55° ENE 00:36:20 28° SE
BREEZE-M DEB (TANK) 3.5 00:32:59 41° SE 00:33:28 42° SE 00:42:58 10° ENE
Meteor 2-20 Rocket 4.4 00:33:02 51° S 00:34:45 90° WNW 00:40:58 10° N
UNK 4.3 00:38:05 35° SE 00:39:41 52° ENE 00:44:08 10° N
Cosmos 1975 Rocket 3.4 00:39:57 50° ESE 00:40:28 54° E 00:44:43 10° NNE
Cosmos 1400 Rocket 4.0 00:37:34 10° NNW 00:40:29 33° WNW 00:40:29 33° WNW
Cosmos 1842 4.5 00:42:19 31° WNW 00:42:19 31° WNW 00:45:23 10° N
Cosmos 1656 3.6 00:41:00 54° S 00:42:10 73° ESE 00:47:41 10° NNE
Cosmos 1758 3.2 00:38:13 10° N 00:42:13 84° NW 00:42:13 84° NW
Cosmos 1378 Rocket 4.2 00:43:15 40° WNW 00:43:15 40° WNW 00:47:19 10° N
Cosmos 1315 Rocket 2.7 00:43:36 10° N 00:47:36 80° ENE 00:47:45 78° ESE
Cosmos 2251 Rocket 3.4 00:44:35 10° NNW 00:49:51 90° WSW 00:51:33 45° SSE
Cosmos 1626 3.8 00:49:57 23° ESE 00:50:43 25° E 00:53:46 10° NE
Cosmos 1000 Rocket 4.4 00:50:24 43° S 00:52:39 90° S 00:58:56 10° N
COSMOS 2455 2.8 00:47:23 10° NW 00:53:20 64° WSW 00:55:11 43° S
Okean 2 4.2 00:53:24 38° WNW 00:53:24 38° WNW 00:57:16 10° N
ISS -1.8 00:52:46 10° NW 00:55:49 30° NNE 00:58:52 10° ENE
Cosmos 614 Rocket 3.9 00:51:23 10° NNW 00:56:30 80° ENE 00:58:46 34° SSE
Cosmos 1727 Rocket 4.4 00:55:09 39° SW 00:57:06 51° WNW 01:03:18 10° N
SeaSat 1 4.0 00:55:35 10° N 00:59:38 26° NW 01:01:43 20° W
KORONAS-FOTON 4.0 00:59:51 58° SE 01:00:16 64° E 01:04:10 10° NNE
SL-16 R/B 2.5 01:00:16 31° SSE 01:03:28 84° WSW 01:09:47 10° NNW
BREEZE-M DEB (TANK) 4.0 01:06:49 19° SE 01:06:49 19° SE 01:08:04 10° E
Cosmos 1025 Rocket 3.6 01:04:24 37° SE 01:05:41 51° E 01:09:57 10° NNE
Okean 1 Rocket 4.2 01:02:27 10° NNW 01:05:54 28° W 01:05:54 28° W
Cosmos 2219 3.1 01:00:50 10° NNW 01:06:33 76° WSW 01:09:19 32° SSE
Cosmos 1707 3.7 01:12:57 34° WNW 01:12:57 34° WNW 01:16:26 10° N
ADEOS Rocket 4.1 01:06:54 10° SE 01:14:10 57° ENE 01:21:46 10° N
Cosmos 2263 Rocket 4.4 01:10:20 10° N 01:14:57 25° NE 01:19:34 10° ESE
Cosmos 371 Rocket 3.4 01:14:23 46° SW 01:15:41 66° WNW 01:20:35 10° NNE
USA 215 3.7 01:17:22 34° SSW 01:18:46 37° SW 01:24:45 10° WNW
ADEOS II 2.4 01:15:14 10° NNE 01:20:26 59° E 01:23:07 28° S
Cosmos 332 Rocket 3.7 01:19:00 44° SSW 01:20:34 87° ESE 01:25:28 10° NNE
Helios 1B rocket 2.5 01:17:39 10° N 01:21:45 61° WNW 01:22:33 50° WSW
NPP 3.6 01:20:20 10° N 01:25:44 75° WNW 01:28:00 36° SSW
CZ-2D R/B 2.3 01:21:43 10° N 01:27:02 60° WNW 01:29:09 35° SW
Cosmos 1725 Rocket 3.9 01:20:49 10° N 01:27:06 82° W 01:31:00 24° S
Cosmos 1908 3.1 01:23:54 10° NNW 01:27:47 72° W 01:28:34 53° SSW
USA 281 3.6 01:28:44 31° SSW 01:31:12 42° WSW 01:37:24 10° NW
Cosmos 1459 Rocket 4.4 01:25:52 10° NNW 01:31:44 44° W 01:34:06 31° SW
APEX 3.8 01:27:28 10° NNW 01:32:01 89° ENE 01:37:41 10° SSE
Cosmos 1340 4.4 01:30:49 15° SE 01:33:05 27° E 01:36:17 10° NE
AQUA 3.8 01:29:00 10° N 01:33:46 73° WNW 01:35:38 37° SSW
Resurs 1-4 Rocket 2.5 01:28:49 10° N 01:33:53 50° WNW 01:36:01 32° SW
Lacrosse 5 3.4 01:29:52 12° W 01:33:58 31° NNW 01:38:31 10° NE
Cosmos 1544 Rocket 3.5 01:30:03 10° NNW 01:34:27 75° W 01:36:15 35° S
Meteor 2-5 Rocket 4.4 01:31:38 17° SSE 01:35:54 50° E 01:41:18 10° NNE
Meteor 1-28 Rocket 3.7 01:34:00 20° SSE 01:36:21 57° ENE 01:40:00 10° N
Cosmos 2233 Rocket 4.1 01:30:08 10° N 01:36:22 78° E 01:41:58 13° SSE
Cosmos 2360 4.2 01:36:05 31° SSW 01:38:57 88° ESE 01:44:44 10° NNE
Lacrosse 4 Rocket 1.5 01:37:27 39° SSW 01:39:06 81° ESE 01:43:32 10° NNE
Cosmos 1697 Rocket 2.6 01:37:11 32° SW 01:39:52 78° WNW 01:45:31 10° NNE
Meteor 1-16 Rocket 4.5 01:34:51 10° NNW 01:40:38 56° W 01:43:40 27° SSW
Cosmos 1953 2.8 01:37:31 10° NNW 01:41:17 41° W 01:41:51 38° WSW
Cosmos 2016 Rocket 4.1 01:35:16 10° NNW 01:41:20 55° W 01:44:39 26° SSW
CZ-3B R/B 4.1 01:22:08 10° WSW 01:43:22 63° NW 01:48:05 10° NE
Cosmos 1455 Rocket 3.7 01:40:30 10° NNW 01:44:28 35° W 01:45:16 32° WSW
Cosmos 407 Rocket 3.5 01:39:07 10° NNW 01:44:28 76° WSW 01:49:16 13° SSE
Cosmos 2061 Rocket 4.3 01:44:04 10° NNW 01:50:10 51° W 01:53:55 23° SSW
Landsat 4 4.1 01:46:55 10° N 01:50:34 49° WNW 01:51:42 35° WSW
Timation 2 Rocket 4.4 01:45:23 10° NW 01:50:49 37° WSW 01:53:37 24° SSW
CBERS-1 4.1 01:46:15 10° NNE 01:51:23 74° ESE 01:54:51 21° S
Cosmos 1980 Rocket 2.3 01:48:51 24° SSW 01:52:22 72° ESE 01:58:01 10° NNE
Cosmos 1536 Rocket 3.5 01:51:33 28° S 01:53:52 86° W 01:58:20 10° N
Cosmos 1624 Rocket 4.0 01:51:07 25° SSW 01:54:16 84° ESE 01:59:39 10° NNE
USA 276 3.8 01:52:28 13° WNW 01:54:57 32° N 01:57:51 10° ENE
GP-B 3.0 01:53:54 10° N 01:58:21 75° W 02:01:02 23° SSW
Cosmos 2285 Rocket 4.1 01:55:41 21° SSW 02:00:13 84° ESE 02:06:42 10° NNE
Meteor 1-29 3.9 01:59:54 10° N 02:02:58 32° WNW 02:03:52 27° WSW
Cosmos 2227 Rocket 3.0 01:58:34 10° NW 02:03:26 30° WSW 02:05:43 23° SW
Cosmos 2297 Rocket 3.4 02:01:42 10° NW 02:05:59 22° W 02:07:14 21° WSW
Cosmos 1674 4.3 02:06:17 19° W 02:07:15 21° WNW 02:10:13 10° NNW
CZ-4C R/B 3.4 02:07:09 12° S 02:11:02 72° WSW 02:15:10 10° NNW
Cosmos 2369 4.0 02:08:56 22° SW 02:12:38 59° WNW 02:18:19 10° NNE
Cosmos 1954 Rocket 4.0 02:07:22 10° NNW 02:12:41 89° ENE 02:17:59 10° SSE
Cosmos 2278 3.7 02:09:55 20° SSW 02:14:02 89° WNW 02:19:48 10° NNE
SL-14 R/B 3.7 02:12:59 25° SW 02:14:55 47° WNW 02:18:46 10° N
Cosmos 2056 Rocket 3.5 02:12:37 21° SW 02:15:57 65° WNW 02:21:05 10° NNE
Spot 1 4.3 02:13:45 10° S 02:18:23 66° WSW 02:23:20 10° NNW
Cosmos 2082 4.0 02:13:43 10° NW 02:19:05 44° WSW 02:24:28 10° S
Cosmos 405 3.0 02:15:37 10° N 02:19:09 82° ENE 02:22:38 10° SSE
IRS-1C 4.2 02:14:23 10° NNE 02:19:46 78° ESE 02:24:57 11° S
MSX 4.0 02:15:17 10° NNE 02:21:06 76° ESE 02:26:52 10° S
Cosmos 1626 3.6 02:24:28 18° WSW 02:25:53 22° WNW 02:28:49 10° NNW
SL-16 R/B 3.4 02:22:19 10° S 02:27:32 39° ESE 02:32:46 10° NE
CZ-2C R/B 4.0 02:23:30 10° NNE 02:28:11 34° E 02:32:53 10° SSE
CZ-2D R/B 4.3 02:25:33 10° NNE 02:29:54 55° E 02:34:15 10° S
ISS -3.9 02:29:30 10° WNW 02:32:53 79° SSW 02:36:15 10° SE
Cosmos 220 Rocket 4.1 02:30:12 13° SSW 02:34:06 84° ESE 02:38:33 10° NNE
Aureole 2 Rocket 1.6 02:32:16 10° NNW 02:34:57 75° WSW 02:37:37 10° SSE
IRS-1D 4.3 02:30:24 10° N 02:35:20 39° WNW 02:39:29 14° SW
Cosmos 1300 3.5 02:34:04 10° NNW 02:37:30 32° W 02:40:15 14° SSW
Cosmos 1140 Rocket 4.4 02:34:50 10° NW 02:39:15 28° W 02:43:39 10° SSW
IDEFIX/ARIANE 42P 2.9 02:36:30 10° N 02:41:37 53° WNW 02:46:28 11° SW
Cosmos 1891 Rocket 4.4 02:36:43 10° N 02:42:48 79° W 02:48:47 10° S
NOSS 3-2 (A) 4.1 02:38:31 10° S 02:43:47 47° ESE 02:49:45 10° NE
Cosmos 1741 Rocket 4.5 02:41:37 10° NNW 02:46:50 66° ENE 02:52:01 10° SSE
Cosmos 1346 Rocket 3.1 02:43:13 10° S 02:47:04 66° E 02:50:58 10° NNE
SL-16 R/B 4.2 02:45:22 11° WSW 02:47:57 14° W 02:51:03 10° WNW
SL-08 R/B 3.2 02:43:36 10° S 02:48:16 67° WSW 02:52:54 10° NNW
Cosmos 389 Rocket 3.3 02:49:12 10° N 02:52:39 54° ENE 02:56:02 10° SSE
USA 32 4.3 02:48:01 10° N 02:53:19 77° E 02:58:35 10° S
Cosmos 1455 2.5 02:49:51 10° N 02:53:42 71° E 02:57:32 10° SSE
Meteor 2-10 Rocket 3.8 02:48:21 10° NNW 02:54:00 63° W 02:59:26 10° S
Cosmos 2322 Rocket 3.0 02:49:29 10° S 02:54:56 51° ESE 03:00:27 10° NE
USA 238 DEB 4.4 02:51:18 10° S 02:57:31 49° ESE 03:04:01 10° NE
USA 238 4.4 02:51:26 10° S 02:57:37 48° ESE 03:04:07 10° NE
Cosmos 1892 Rocket 3.5 02:54:04 10° S 02:58:24 84° WNW 03:02:45 10° N
Cosmos 2263 Rocket 2.2 02:53:43 10° NNW 02:59:18 61° WSW 03:04:52 10° S
ADEOS II 3.6 02:55:50 10° NNW 02:59:41 21° WNW 03:03:32 10° WSW
ADEOS Rocket 4.2 02:53:17 10° SSW 02:59:54 34° W 03:06:50 10° NNW
Cosmos 2346 Rocket 4.4 02:54:13 10° S 03:00:17 82° W 03:06:22 10° N
Meteor 1-24 Rocket 4.2 02:55:05 10° SW 03:00:18 41° WNW 03:05:24 10° N
Cosmos 1703 4.3 02:58:51 10° SSE 03:02:34 47° E 03:06:18 10° NNE
ARIANE 5 R/B 2.7 02:57:43 10° N 03:02:45 56° WNW 03:07:41 10° SSW
Tsikada Rocket 4.5 02:59:02 10° S 03:05:22 68° E 03:11:41 10° NNE
Cosmos 2084 3.9 03:02:40 10° NW 03:07:07 71° NE 03:11:39 10° SE
ATLAS 2A CENTAUR R/B 4.4 03:05:03 10° SSE 03:07:37 12° SE 03:11:25 10° ESE
Cosmos 1340 4.2 03:05:44 10° WSW 03:08:39 21° WNW 03:11:35 10° NNW
Okean 1-7 Rocket 3.8 03:07:48 10° S 03:12:21 80° E 03:16:57 10° N
SL-24 R/B 4.3 03:08:44 10° SSE 03:12:29 67° ENE 03:16:41 10° N
CZ-4B R/B 4.1 03:09:53 10° N 03:14:34 41° WNW 03:19:21 10° SW
Cosmos 1464 Rocket 4.2 03:08:54 10° NNW 03:14:50 51° W 03:20:48 10° SSW
Cosmos 2058 Rocket 3.1 03:11:11 10° NNW 03:15:41 72° W 03:20:10 10° S
Cosmos 2360 Rocket 3.3 03:12:30 10° S 03:17:51 45° ESE 03:23:13 10° NE
